Probability
26 39 74 71 74 77 81 84 77 74 81 81 87 84 84 84 71 65 68 74 77 77 65 65 65 61 65 58 61 55 55 65 71 68 65 61 65 65 65 52 45 48 58
29 48 77 77 77 81 81 84 77 74 77 81 81 77 74 74 65 68 71 74 74 68 58 65 65 58 58 65 61 65 65 65 68 71 65 58 61 61 68 58 55 55 65
32 58 77 81 81 81 84 87 81 77 84 84 81 84 81 74 74 71 74 71 74 65 61 68 61 65 58 65 61 48 52 55 55 65 61 23 35 68 77 61 61 61 61
32 48 61 87 90 87 94 90 94 90 77 81 90 87 84 81 74 74 74 74 81 71 55 52 55 58 58 55 48 52 42 39 48 48 35 23 16 42 58 58 58 58 55
42 55 84 87 90 90 90 97 97 87 81 84 87 84 84 84 77 77 77 77 68 74 74 55 52 58 55 45 42 42 39 42 45 48 23 13 19 48 48 52 52 55 52
42 48 81 84 81 84 87 90 97 84 81 84 81 77 81 81 77 81 81 74 68 68 71 61 52 52 52 42 39 32 29 32 45 23 35 23 23 48 48 45 42 39 35
32 52 71 84 87 90 87 90 87 87 77 77 74 81 77 77 71 68 68 68 61 61 61 55 48 52 39 35 32 32 45 55 42 26 39 35 39 58 45 48 39 39 42
35 42 71 87 87 90 90 87 84 81 81 77 68 74 71 71 65 61 61 61 58 55 58 58 58 48 32 35 32 35 52 61 35 19 23 35 52 61 45 39 26 32 32
32 45 52 74 84 84 87 87 81 81 77 74 71 68 74 74 68 61 58 52 52 55 55 52 55 45 35 32 35 39 55 71 32 23 16 19 52 55 45 39 35 32 29
32 32 45 68 68 65 71 81 77 71 71 71 68 58 61 68 65 61 58 55 48 48 42 35 39 35 35 52 45 52 65 55 19 19 26 29 61 48 42 42 39 39 32
29 45 45 61 77 55 42 61 77 77 68 68 61 58 68 68 55 55 48 65 48 42 29 35 48 52 52 55 55 61 68 29 10 19 26 48 58 45 39 42 39 35 35
32 39 48 61 55 48 45 87 87 77 87 84 87 81 77 77 77 32 58 65 61 52 55 55 65 61 48 39 42 61 29 10 13 16 26 61 61 45 42 42 42 42 32
45 45 52 68 84 61 84 87 77 84 90 84 77 81 84 74 68 58 55 65 68 65 58 68 74 32 35 35 35 35 29 16 10 10 26 58 61 52 45 45 45 39 39
45 55 58 71 84 94 84 77 74 77 84 77 77 84 84 84 74 74 74 68 77 77 84 71 74 68 65 45 35 39 35 19 16 23 32 58 61 58 39 45 42 35 35
55 58 74 87 90 94 94 90 74 87 71 81 90 87 77 77 77 77 84 87 74 81 81 84 77 71 68 65 42 35 35 23 29 32 29 48 58 55 42 35 42 42 35
45 48 81 81 90 94 94 94 94 84 87 77 84 81 84 84 84 81 74 81 84 81 84 84 77 74 74 71 52 55 48 32 42 35 19 42 52 45 45 39 29 32 29
45 68 81 84 90 94 94 90 90 87 65 81 87 77 77 81 84 81 84 81 84 84 87 81 77 68 68 65 68 52 45 48 52 48 29 29 39 48 55 52 39 42 42
65 84 87 58 87 94 94 90 90 84 90 90 90 87 81 81 74 87 87 81 77 77 81 84 71 68 61 58 61 65 58 58 45 48 48 42 32 26 29 55 55 48 39
81 87 94 94 94 90 90 94 90 90 90 90 87 87 81 77 71 77 84 81 71 74 71 61 71 71 71 61 55 52 58 58 48 35 39 48 45 42 23 32 48 55 42
77 87 94 94 94 94 94 94 94 90 87 87 84 84 74 74 65 71 74 68 68 61 61 68 71 74 74 65 39 39 48 52 55 48 39 32 39 39 29 23 26 29 32
74 84 94 94 94 94 90 90 90 87 87 87 81 74 77 77 68 74 71 71 68 71 65 58 71 61 74 71 61 48 42 45 52 55 45 42 29 32 32 35 19 16 19
87 87 90 90 87 90 90 90 90 90 87 87 81 77 74 68 68 58 74 74 68 68 68 65 68 71 71 65 68 55 48 39 55 32 39 42 29 32 35 23 39 35 16
77 81 77 81 84 84 84 84 87 87 77 77 81 77 74 74 74 77 74 74 74 68 65 65 65 71 71 68 68 58 42 29 35 45 39 35 35 39 26 26 23 32 29
71 74 81 81 81 81 84 81 77 77 77 77 77 77 74 74 74 71 71 61 68 65 74 65 65 68 68 65 68 68 68 55 32 29 29 39 39 29 23 16 19 23 26
68 71 81 81 81 81 81 81 77 77 81 81 77 77 77 77 74 71 71 68 65 68 71 71 71 74 74 71 61 65 71 55 42 35 26 26 19 23 26 26 23 23 29
65 68 74 81 77 77 81 81 81 81 81 81 81 77 77 77 77 71 71 71 68 71 68 68 74 77 74 74 71 68 55 48 42 39 32 23 19 23 23 26 29 26 26
Height
5863 5861 5862 5862 5862 5862 5862 5863 5863 5863 5864 5864 5865 5865 5865 5866 5866 5867 5867 5868 5868 5869 5870 5871 5872 5872 5873 5873 5874 5875 5875 5876 5877 5878 5879 5880 5881 5882 5883 5883 5884 5885 5886
5865 5864 5863 5864 5864 5864 5864 5864 5865 5865 5865 5866 5866 5866 5866 5867 5868 5869 5869 5869 5870 5871 5872 5873 5874 5874 5874 5875 5875 5876 5877 5878 5879 5879 5880 5881 5882 5883 5884 5885 5885 5886 5887
5866 5866 5866 5865 5865 5866 5866 5866 5866 5867 5867 5867 5867 5867 5868 5868 5869 5870 5871 5871 5872 5873 5874 5874 5875 5875 5876 5876 5877 5878 5879 5880 5880 5881 5882 5883 5883 5884 5885 5886 5886 5887 5888
5868 5868 5868 5867 5867 5867 5868 5868 5868 5868 5869 5868 5869 5869 5869 5870 5870 5872 5873 5873 5874 5874 5875 5876 5877 5877 5877 5878 5879 5880 5881 5881 5882 5883 5884 5884 5885 5886 5886 5887 5887 5888 5889
5870 5869 5869 5869 5869 5869 5870 5870 5870 5870 5870 5870 5870 5871 5871 5872 5873 5874 5874 5875 5876 5876 5877 5878 5879 5879 5880 5880 5881 5882 5882 5883 5884 5884 5885 5886 5886 5887 5887 5888 5888 5889 5890
5872 5871 5871 5871 5871 5871 5872 5872 5872 5872 5872 5872 5872 5873 5873 5874 5875 5875 5876 5877 5878 5878 5879 5880 5881 5881 5882 5882 5883 5884 5884 5885 5885 5886 5886 5887 5888 5888 5889 5889 5890 5890 5890
5874 5874 5873 5873 5874 5874 5874 5874 5874 5874 5874 5874 5875 5875 5875 5876 5877 5877 5878 5879 5880 5880 5881 5882 5882 5883 5883 5884 5885 5885 5886 5886 5887 5887 5888 5889 5889 5889 5890 5890 5891 5891 5892
5876 5876 5876 5876 5876 5876 5876 5876 5876 5876 5876 5877 5877 5877 5878 5878 5879 5880 5880 5881 5881 5882 5883 5883 5884 5884 5885 5885 5885 5886 5887 5887 5888 5889 5889 5890 5890 5890 5890 5891 5892 5892 5892
5879 5878 5878 5878 5878 5878 5878 5878 5878 5878 5879 5879 5879 5880 5880 5880 5881 5881 5882 5883 5883 5884 5885 5885 5886 5886 5887 5887 5887 5888 5888 5889 5889 5890 5890 5890 5891 5891 5891 5892 5892 5892 5893
5881 5881 5881 5880 5881 5881 5880 5880 5881 5881 5881 5881 5882 5882 5882 5883 5883 5884 5884 5885 5885 5886 5886 5887 5887 5888 5888 5888 5889 5889 5889 5890 5890 5890 5891 5891 5891 5892 5892 5892 5893 5893 5894
5884 5884 5883 5883 5883 5883 5883 5883 5883 5883 5883 5884 5884 5884 5885 5885 5886 5886 5887 5887 5887 5888 5888 5889 5889 5889 5889 5890 5889 5890 5890 5891 5891 5890 5891 5892 5892 5892 5893 5893 5893 5894 5894
5887 5886 5886 5886 5886 5886 5885 5885 5886 5886 5885 5886 5886 5886 5887 5887 5888 5888 5888 5889 5889 5889 5890 5890 5890 5890 5890 5890 5890 5890 5891 5891 5891 5891 5891 5892 5892 5892 5892 5893 5893 5894 5894
5890 5889 5889 5888 5888 5888 5888 5888 5888 5888 5888 5888 5888 5888 5889 5889 5890 5890 5890 5890 5891 5891 5891 5891 5891 5891 5891 5891 5891 5891 5891 5891 5892 5892 5891 5891 5892 5892 5892 5893 5893 5894 5894
5893 5892 5891 5891 5891 5891 5891 5891 5891 5891 5890 5889 5890 5890 5890 5891 5891 5890 5891 5892 5892 5892 5892 5892 5892 5892 5892 5892 5892 5892 5892 5892 5892 5892 5891 5891 5891 5892 5892 5892 5893 5893 5893
5895 5895 5894 5894 5894 5894 5894 5894 5893 5893 5891 5892 5892 5892 5892 5892 5892 5891 5891 5893 5893 5893 5892 5893 5893 5892 5892 5892 5892 5892 5892 5892 5892 5891 5891 5891 5891 5891 5891 5892 5892 5893 5893
5898 5898 5897 5897 5896 5896 5896 5896 5896 5895 5894 5894 5894 5894 5894 5894 5894 5893 5894 5894 5893 5893 5893 5893 5893 5893 5892 5892 5892 5892 5892 5892 5891 5891 5891 5891 5891 5891 5891 5891 5891 5892 5892
5902 5901 5900 5899 5899 5898 5898 5898 5898 5897 5897 5896 5896 5896 5895 5895 5895 5895 5895 5895 5894 5894 5894 5893 5893 5893 5893 5892 5892 5892 5891 5891 5891 5890 5890 5890 5890 5890 5889 5890 5890 5890 5890
5905 5904 5903 5902 5901 5901 5900 5900 5900 5899 5898 5898 5898 5897 5897 5896 5896 5896 5896 5895 5895 5894 5894 5894 5893 5893 5893 5892 5892 5891 5891 5890 5890 5889 5889 5888 5888 5887 5887 5888 5889 5889 5889
5907 5906 5905 5905 5904 5903 5902 5902 5901 5901 5900 5899 5899 5899 5898 5897 5897 5896 5896 5896 5895 5895 5894 5894 5893 5893 5893 5892 5892 5891 5890 5890 5889 5888 5888 5888 5887 5887 5886 5887 5887 5887 5887
5910 5909 5908 5907 5906 5905 5904 5903 5903 5902 5901 5901 5900 5900 5899 5898 5897 5897 5896 5896 5895 5895 5894 5894 5894 5893 5893 5892 5891 5891 5890 5889 5888 5888 5887 5887 5886 5886 5886 5885 5886 5886 5885
5913 5912 5910 5909 5908 5907 5906 5905 5904 5903 5903 5902 5901 5900 5900 5899 5898 5897 5896 5896 5895 5894 5894 5894 5893 5893 5892 5891 5891 5890 5889 5888 5887 5886 5886 5886 5885 5884 5884 5884 5883 5883 5883
5915 5914 5912 5911 5910 5909 5908 5907 5905 5904 5903 5903 5902 5901 5899 5899 5898 5897 5896 5896 5895 5894 5894 5893 5893 5892 5892 5891 5890 5889 5888 5888 5886 5886 5885 5884 5883 5883 5882 5882 5881 5881 5881
5917 5916 5914 5913 5912 5910 5909 5908 5907 5905 5904 5903 5902 5901 5900 5899 5898 5897 5896 5895 5894 5894 5893 5893 5892 5892 5891 5890 5889 5888 5887 5886 5885 5885 5884 5883 5882 5881 5881 5880 5879 5878 5878
5919 5917 5916 5915 5913 5912 5911 5909 5908 5906 5905 5904 5903 5901 5900 5899 5898 5897 5896 5895 5894 5893 5893 5892 5892 5891 5890 5889 5888 5887 5886 5884 5884 5883 5883 5881 5880 5879 5878 5878 5877 5876 5875
5920 5919 5917 5916 5915 5913 5912 5910 5909 5907 5905 5904 5903 5902 5901 5900 5898 5897 5896 5895 5894 5893 5892 5891 5891 5890 5889 5888 5886 5885 5884 5883 5882 5881 5880 5879 5878 5876 5875 5875 5874 5873 5872
5921 5920 5919 5917 5916 5914 5913 5911 5910 5908 5906 5905 5903 5902 5901 5900 5899 5897 5896 5895 5893 5892 5891 5890 5889 5888 5887 5886 5885 5884 5883 5881 5880 5879 5878 5876 5875 5874 5872 5872 5871 5870 5869
Wind_Speed
10 10 9 9 8 8 7 7 8 8 8 7 7 8 8 8 9 9 9 8 9 10 10 10 10 9 9 9 8 9 10 10 9 9 9 9 9 8 8 8 7 7 7
10 10 9 9 9 8 8 7 7 8 8 7 7 7 8 8 9 9 9 9 9 10 9 9 9 10 9 8 9 10 10 10 10 9 9 9 8 8 7 7 7 7 7
9 9 9 9 9 9 8 8 8 8 7 7 8 8 8 8 9 9 9 9 8 8 9 9 9 9 9 9 9 10 10 10 9 9 8 8 7 7 6 6 7 6 6
9 9 9 9 9 9 9 9 8 9 8 8 8 9 9 9 10 10 10 9 9 8 9 9 9 8 8 9 10 10 10 10 8 8 8 7 7 6 6 6 6 6 6
10 9 9 9 9 9 9 8 8 8 9 8 9 9 9 10 10 10 10 10 9 9 9 9 9 9 9 10 10 9 9 9 8 7 7 6 6 6 6 6 6 6 6
11 10 10 10 10 9 9 9 9 9 10 9 9 10 10 10 11 10 10 10 10 10 10 9 9 9 10 10 9 8 7 8 7 7 7 6 6 5 6 5 5 5 6
13 12 11 11 10 10 10 9 9 10 10 10 10 11 11 11 11 11 10 10 10 10 9 9 9 9 9 8 8 8 7 7 6 6 6 6 5 5 5 4 4 5 5
14 13 12 11 10 10 10 9 9 9 10 10 10 10 10 11 11 10 10 10 10 10 9 9 8 8 8 8 8 7 6 5 5 5 5 5 5 5 5 4 4 4 4
14 13 11 10 10 10 10 10 10 10 10 10 9 9 10 11 11 10 10 10 10 10 9 8 8 8 8 8 7 7 6 5 5 5 4 4 4 4 4 4 4 3 3
13 13 11 11 11 10 10 10 10 10 10 9 9 8 9 10 10 10 9 9 9 9 8 8 7 7 7 7 6 6 6 5 5 4 4 3 3 3 3 3 3 2 2
13 13 12 11 11 11 11 11 11 10 10 9 9 9 9 9 9 9 9 8 8 7 7 6 6 6 6 5 5 5 5 5 4 3 3 2 2 2 2 2 2 1 1
13 12 12 12 12 12 12 11 11 10 10 10 9 9 8 8 8 8 8 8 7 6 6 5 5 5 5 4 4 4 4 3 3 3 2 1 1 1 1 1 0 1 0
13 13 12 12 12 12 12 11 11 10 10 10 10 9 8 7 7 7 6 5 5 4 4 4 4 3 3 2 3 3 3 2 2 2 2 1 1 0 0 1 2 2 2
13 12 12 12 12 12 11 11 10 10 10 10 10 8 8 7 6 5 5 4 4 4 4 4 3 2 2 1 1 1 1 1 2 1 1 1 1 1 1 2 2 2 3
14 13 13 12 11 11 11 10 9 9 9 9 10 9 8 7 5 4 4 4 4 4 4 3 3 3 2 1 1 1 1 1 2 1 1 1 1 1 2 2 2 3 3
14 13 13 12 11 11 10 10 9 7 8 8 8 8 7 7 6 5 4 3 3 3 3 3 3 2 2 2 1 1 1 2 2 2 2 2 3 2 2 2 3 3 3
14 13 13 12 10 10 9 9 8 7 7 7 7 7 7 6 6 5 4 3 2 2 2 2 2 2 2 2 2 2 2 2 2 3 3 3 3 3 3 4 4 5 5
14 13 12 11 10 10 9 9 8 7 6 6 6 6 6 5 4 4 3 3 3 2 2 2 2 3 3 3 3 2 2 3 3 4 4 4 4 4 4 5 6 6 7
14 13 12 11 11 10 9 9 7 7 6 6 6 6 5 5 4 4 4 3 3 3 3 3 3 3 3 4 4 4 3 3 4 4 4 4 5 5 5 6 6 6 7
13 13 12 11 11 10 10 8 8 7 6 6 7 6 6 5 4 4 4 4 4 3 3 3 4 4 4 5 5 5 4 4 4 4 4 5 5 6 6 6 7 7 8
13 13 12 12 11 10 10 8 8 7 6 6 6 7 6 5 5 5 5 4 4 4 4 4 4 5 5 6 6 5 5 5 5 5 5 6 6 7 7 8 9 9 10
13 12 12 12 12 11 10 10 8 7 6 6 6 6 7 7 6 6 6 5 5 5 5 5 5 6 6 7 7 7 7 6 6 6 6 7 7 7 7 8 9 10 10
13 12 12 12 12 11 11 10 10 9 7 7 7 8 8 7 7 7 7 7 6 6 6 5 6 6 6 7 8 8 8 8 7 7 8 8 8 9 10 10 10 10 11
12 12 12 12 12 12 11 11 10 10 9 8 8 8 8 8 8 9 8 8 8 7 7 7 7 7 8 9 9 9 9 9 9 8 9 10 10 11 11 12 12 12 12
11 11 11 11 12 12 12 12 12 11 10 9 9 9 9 9 9 9 9 9 9 9 9 9 9 9 9 9 10 10 11 10 11 11 11 11 11 12 12 12 13 13 12
10 10 11 11 11 12 12 12 12 12 11 10 9 9 9 9 10 10 10 10 10 10 10 10 10 10 10 10 10 10 11 11 11 12 12 12 13 14 14 13 13 13 13
Wind_Direction
72 73 75 79 83 91 101 107 107 109 114 115 118 121 122 121 115 112 112 112 110 111 115 115 111 106 108 110 111 110 110 112 117 114 116 116 116 117 120 121 131 134 135
69 74 76 76 80 86 93 99 105 104 108 110 111 115 118 122 119 116 114 110 110 112 116 116 112 112 114 110 109 106 109 111 112 116 119 114 112 118 122 125 133 137 134
71 74 74 73 79 85 90 93 99 102 106 107 107 108 111 118 122 122 115 113 113 112 113 115 114 111 117 113 109 106 105 107 109 109 113 110 109 112 121 126 129 137 137
70 71 72 75 79 83 89 93 97 98 97 100 106 107 107 112 118 118 112 113 112 110 110 112 114 110 109 107 107 105 106 103 106 109 109 109 110 110 114 122 124 130 134
69 70 71 76 80 84 88 90 93 94 93 96 104 109 112 115 117 116 113 112 109 108 108 110 110 108 103 103 103 102 101 100 99 103 105 106 112 116 114 115 119 127 129
68 70 75 78 81 85 87 89 92 94 92 94 101 106 110 114 115 117 113 112 111 112 109 111 110 103 105 102 100 99 99 101 98 96 100 99 102 111 118 117 119 125 133
69 72 76 79 79 84 86 88 92 91 90 93 99 106 107 110 116 115 113 113 113 114 110 108 104 101 103 101 101 103 101 99 100 100 97 100 96 95 105 122 122 130 137
68 70 75 77 79 85 87 89 90 90 89 94 100 103 108 111 112 112 110 112 113 113 109 105 101 102 104 102 103 105 108 104 103 101 99 97 92 88 89 103 120 123 135
68 71 74 78 78 81 83 84 85 90 92 93 96 98 98 104 108 108 109 108 110 110 109 104 100 101 102 100 102 105 107 109 111 111 108 106 101 96 93 94 100 110 113
65 67 75 78 79 80 80 81 80 84 88 91 89 96 101 100 103 107 107 106 106 108 108 105 102 100 101 99 101 104 105 104 115 116 109 105 104 100 98 90 87 96 119
63 65 72 76 79 80 81 80 80 84 87 90 90 93 103 102 100 103 104 106 107 107 106 105 104 101 104 99 95 97 99 101 105 113 103 100 103 101 100 96 96 88 146
63 64 70 75 78 78 79 80 82 82 85 86 88 92 99 99 97 97 96 99 100 97 97 101 106 99 104 101 87 88 92 93 84 86 87 81 102 104 100 116 88 340 290
62 65 69 76 77 76 78 79 79 79 80 84 85 85 91 97 98 94 90 95 98 95 95 101 102 103 105 94 84 81 78 67 55 57 58 50 87 114 300 259 277 277 280
60 66 67 74 76 76 76 77 78 76 76 76 78 79 80 86 88 92 88 95 99 94 93 95 95 93 98 87 84 91 51 30 22 32 23 23 42 337 315 289 270 273 270
59 64 65 68 71 72 72 73 74 73 76 75 74 75 77 77 78 71 71 76 81 87 83 85 87 81 89 70 8 305 302 309 321 337 345 319 313 313 294 281 268 268 261
57 61 62 64 63 65 67 68 69 70 70 68 69 67 69 69 68 70 67 65 72 80 83 77 72 64 56 32 349 316 309 311 305 292 283 287 288 296 279 276 267 266 260
54 57 57 56 57 60 62 62 65 69 72 68 66 59 58 61 61 63 61 63 60 53 54 50 52 46 32 10 341 306 306 304 293 286 278 276 276 275 262 267 266 263 264
50 52 51 52 52 54 56 55 55 57 63 60 55 47 50 53 49 47 43 38 35 34 41 40 30 21 16 358 342 318 320 320 291 282 268 271 269 270 266 275 275 272 268
46 47 45 48 47 47 49 50 49 50 51 47 43 37 33 37 36 34 25 20 26 20 22 22 16 7 355 343 336 316 307 307 303 288 284 285 278 276 281 280 283 283 276
41 42 42 43 43 42 40 38 38 42 45 42 35 31 25 21 12 3 358 356 353 357 1 5 356 360 352 336 324 324 315 299 306 306 300 302 298 288 287 287 287 285 282
35 38 37 38 37 35 33 33 29 31 35 32 24 18 14 7 358 355 346 343 343 335 335 337 335 338 333 331 324 326 325 317 317 304 300 299 298 293 289 289 288 286 284
32 33 33 33 32 30 28 27 23 17 20 17 11 9 8 4 359 359 349 345 335 332 322 323 321 321 321 321 326 327 321 323 327 324 312 305 300 295 291 291 294 291 285
29 31 32 31 30 28 25 24 21 12 4 359 357 360 360 357 356 352 344 340 332 333 332 328 327 318 316 318 324 326 329 328 326 320 311 301 296 293 292 291 294 293 289
24 28 29 29 26 24 20 18 14 11 12 5 359 1 360 356 350 347 343 334 327 319 319 324 322 316 316 317 316 317 318 318 315 312 309 302 296 294 291 290 292 293 290
15 19 22 21 20 17 15 13 11 11 9 6 2 1 1 358 353 345 343 334 328 321 317 316 315 314 316 319 317 315 314 314 312 309 306 305 301 298 296 292 290 292 290
4 8 12 13 10 8 8 9 7 6 6 3 2 359 358 358 352 344 340 340 335 331 327 322 317 314 315 316 317 317 317 316 314 311 307 304 299 297 297 296 296 294 292